Regional Weather Roundup
Issued by NWS Newport/Morehead, NC

Current Version | Previous Version | Text Only | Print | Product List | Glossary Off
Versions: 1 2 3 4 5 6 7 8 9 10 11 12 13 14 15 16 17 18 19 20 21 22 23 24 25 26 27 28 29 30 31 32 33 34 35 36 37 38 39 40 41 42 43 44 45 46 47 48 49 50
000 ASUS42 KMHX 021813 RWRMHX WEATHER ROUNDUP FOR EASTERN NORTH CAROLINA NATIONAL WEATHER SERVICE NEWPORT/MOREHEAD CITY NC 200 PM EDT THU JUL 02 2015 NOTE: "FAIR" INDICATES FEW OR NO CLOUDS BELOW 12,000 FEET WITH NO SIGNIFICANT WEATHER AND/OR OBSTRUCTIONS TO VISIBILITY NCZ015>017-031-032-045>047-102-103-021900- NORTH COAST CITY SKY/WX TMP DP RH WIND PRES REMARKS EDENTON NOT AVBL ELIZABETH CITY PTSUNNY 85 74 69 SW13 29.87F KITTY HAWK NOT AVBL MANTEO NOT AVBL $$ NCZ045>047-081-094-103-104-021900- CENTRAL COAST CITY SKY/WX TMP DP RH WIND PRES REMARKS FRISCO PTSUNNY 83 75 77 SW13G21 29.94S SWANQUARTER N/A 90 N/A N/A S13G20 29.88S $$ NCZ095-097-098-100-101-021900- SOUTHERN COAST CITY SKY/WX TMP DP RH WIND PRES REMARKS BEAUFORT SUNNY 85 72 65 SW21 29.95F CEDAR ISLAND N/A 90 N/A N/A S9G18 29.97S JACKSONVILLE PTSUNNY 88 70 55 SW10 29.93F PINEY ISLAND PTCLDY N/A N/A N/A S13G28 29.93F WILMINGTON MOSUNNY 89 70 53 SW12 29.95F $$ NCZ011>013-027>030-043-044-078>080-089-090>093-098-021900- COASTAL PLAIN CITY SKY/WX TMP DP RH WIND PRES REMARKS AHOSKIE MOSUNNY 84 72 65 CALM 29.88F CLINTON NOT AVBL ELIZABETHTOWN NOT AVBL GOLDSBORO PTSUNNY 87 68 53 SW12G20 29.90F GREENVILLE NOT AVBL HAVELOCK MOSUNNY 89 70 53 SW15G24 29.93F KENANSVILLE NOT AVBL KINSTON PTSUNNY 88 68 51 SW10 29.92F NEW BERN PTSUNNY 88 68 51 SW9G20 29.93F RICHLANDS PTSUNNY 90 70 51 SW13 29.93F ROCKY MOUNT PTSUNNY 88 69 53 SW13 29.90F WASHINGTON NOT AVBL WHITEVILLE NOT AVBL $$ AMZ130-135-150-152-154-156-158-170-250-252-270-ANZ085-086-088-633-658-670-021900- MARINE OBSERVATIONS STATION/POSITION TIME TEMP WIND PRES WAVE SWELL AIR SEA DIR/SP/G HT/PER HT/PER (UTC) (F) (DEG/KT/KT) (MB) (FT/S) (FT/S) CHESAPEAKE LIGHT 1800 79 200/ 15/ 15 1011.6 64 E VA BEACH 1750 79 77 200/ 16/ 17 1011.5 5/ 8 3/ 8 DUCK 1700 83 63 210/ 14/ 17 1011.1 2 E DUCK 1711 72 N/A 2/ 9 OREGON INLET 1700 82 81 190/ 19/ 21 1012.8 13E OREGON INLT 1800 75 N/A 3/ 9 HATTERAS CG 1700 81 79 200/ 10/ 14 1013.6 DIAMOND BUOY 1750 82 83 220/ 19/ 23 1013.7 4/ 7 2/ 7 CAPE LOOKOUT 1800 83 230/ 15/ 18 1014.1 BEAUFORT LAB 1700 83 81 220/ 13/ 17 1013.6 30 SE NEW RVR IN 1708 81 80 250/ 14/ 19 1015.4 27 SE WRIGHTSVLE 1700 81 250/ 17/ 19 N/A 5 SE WRIGHTSVLE NOT AVBL 225 S CAPE HAT 1750 77 80 220/ 17/ 21 1020.7 6/ 7 41 SE CHARLESTON 1750 81 81 210/ 16/ 17 1016.2 4/ 7 $$

USA.gov is the U.S. government's official web portal to all federal, state and local government web resources and services.